Temperature
21 19 18 18 17 16 16 15 15 14 14 13 13 13 13 13 13 13 13 13 13 13 14 14 14 14 15 15 15 15 16 16 16 16 16 17 17 17 18 18 19 19 18
21 20 19 18 17 16 16 15 15 14 13 13 13 13 13 13 13 13 13 13 13 13 13 13 14 14 14 14 15 15 15 16 16 16 16 16 17 17 18 18 18 19 19
21 20 18 18 17 16 15 15 14 14 13 13 13 13 13 13 13 13 13 13 13 13 13 13 13 14 14 14 14 15 15 15 16 16 16 16 17 17 18 18 18 18 18
20 19 18 17 17 16 15 15 14 14 13 13 12 12 12 12 12 12 12 12 13 13 13 13 13 13 13 14 14 14 14 15 15 15 16 16 16 17 17 17 18 18 18
20 19 18 17 17 16 15 14 14 13 13 12 12 12 12 12 12 12 12 12 12 12 12 13 13 13 13 13 14 14 14 14 15 15 15 15 16 16 16 17 17 18 18
20 19 18 17 16 16 15 14 14 13 13 13 13 13 13 12 12 12 12 12 12 12 12 12 12 13 13 13 13 14 14 14 14 15 15 15 15 16 16 16 17 17 18
20 19 18 17 17 16 15 15 14 14 13 13 13 13 13 12 12 12 12 12 12 12 12 12 12 12 12 13 13 13 13 14 14 14 14 15 15 15 15 16 16 16 17
20 19 18 17 17 16 16 15 14 14 14 13 13 13 13 12 12 12 12 12 12 12 12 12 12 12 12 12 13 13 13 13 14 14 14 14 15 15 15 15 15 16 16
20 19 18 18 17 17 16 15 15 14 14 13 13 13 12 12 12 12 12 12 11 11 12 12 12 12 12 12 12 13 13 13 13 14 14 14 14 15 15 15 15 15 15
20 19 19 18 17 17 16 16 15 15 14 14 13 13 13 12 12 12 12 11 11 11 11 12 12 12 12 12 12 12 12 13 13 13 13 14 14 14 15 15 15 15 15
20 20 19 18 17 17 17 16 16 15 14 14 13 13 13 12 12 12 12 11 11 11 11 11 11 11 11 11 12 12 12 12 13 13 13 13 14 14 14 14 15 15 15
20 20 19 18 18 17 17 16 16 15 15 14 13 13 13 13 12 12 12 11 11 11 11 11 11 11 11 11 11 11 12 12 12 12 13 13 13 13 14 14 14 14 15
20 20 19 18 18 17 17 16 16 15 15 14 13 13 13 13 12 12 12 11 11 11 11 11 11 11 11 11 11 11 11 12 12 12 12 13 13 13 13 14 14 14 14
21 20 19 18 18 17 17 17 16 16 15 14 14 13 13 13 12 12 12 11 11 11 11 11 11 11 11 11 11 11 11 11 11 12 12 12 12 13 13 13 14 14 14
21 20 19 19 18 18 17 17 17 16 15 15 14 14 13 13 12 12 12 11 11 11 11 11 11 11 11 11 11 11 11 11 11 11 11 12 12 12 13 13 13 13 14
21 21 20 19 19 18 18 17 17 16 16 15 15 14 13 13 12 12 12 12 11 11 11 11 11 11 11 11 11 11 11 11 11 11 11 12 12 12 12 13 13 13 13
21 21 20 20 19 19 18 18 17 16 16 15 15 14 14 13 13 12 12 12 11 11 11 11 11 11 11 11 11 11 11 11 11 11 11 11 12 12 12 12 13 13 13
21 20 20 20 19 19 18 18 17 17 16 16 15 15 14 14 13 13 12 12 12 11 11 11 11 11 11 11 11 11 11 11 11 11 11 11 11 12 12 12 12 13 13
21 20 20 20 19 19 19 18 18 17 17 16 16 15 14 14 14 13 13 12 12 12 12 11 11 11 11 11 11 11 11 11 11 11 11 11 11 12 12 12 12 12 13
20 20 19 19 19 19 19 18 18 17 17 17 16 15 15 15 14 14 14 13 13 12 12 12 12 11 11 11 11 11 11 11 11 11 11 11 11 11 11 12 12 12 12
19 19 19 19 19 18 18 18 18 17 17 17 16 16 15 15 15 14 14 14 13 13 13 12 12 12 12 12 11 11 11 11 11 11 11 11 11 11 11 12 12 12 12
19 18 18 18 18 18 18 17 17 17 17 16 16 16 16 15 15 14 14 14 14 13 13 13 13 12 12 12 12 11 11 11 11 11 11 11 11 11 11 12 12 12 12
19 18 18 18 18 17 17 17 17 17 16 16 16 16 15 15 15 15 15 14 14 14 13 13 13 13 12 12 12 12 11 11 11 11 11 11 11 11 11 12 12 12 12
18 18 18 17 17 17 17 17 17 16 16 16 16 16 15 15 15 15 15 15 14 14 14 13 13 13 13 12 12 12 12 11 11 11 11 11 11 11 11 11 12 12 12
17 17 17 17 16 16 16 16 16 16 16 15 15 15 15 16 16 15 15 15 15 14 14 14 14 13 13 13 12 12 12 12 11 11 11 11 11 11 11 11 11 11 11
16 16 16 16 15 15 16 16 16 15 15 15 15 15 15 15 15 15 15 15 15 15 15 14 14 14 14 13 13 12 12 12 12 11 11 11 11 11 11 11 11 11 11
Wind_Speed
4 7 4 3 3 4 5 5 5 5 5 4 4 5 5 5 4 3 5 7 7 7 5 5 5 4 3 4 5 4 5 4 4 3 4 4 5 6 6 5 4 4 5
3 5 4 4 4 4 5 5 6 5 5 3 4 4 5 4 3 3 3 6 6 6 6 6 5 4 4 5 5 4 3 3 4 4 3 3 4 5 7 6 6 5 4
2 4 5 4 3 4 5 6 6 6 6 6 4 5 5 4 4 5 4 4 5 5 4 5 6 5 4 4 5 5 5 4 4 5 4 3 5 3 4 7 7 6 5
2 3 2 3 4 5 5 6 6 6 6 6 5 6 5 4 5 4 4 5 5 4 4 4 5 5 4 5 5 5 4 4 4 4 5 4 2 2 2 3 5 6 6
3 2 2 3 3 4 4 3 4 4 4 5 5 4 4 4 4 5 5 5 5 4 4 4 4 5 4 4 4 5 5 4 5 4 3 4 4 4 3 3 3 4 5
4 3 3 3 2 2 2 1 1 2 2 4 5 4 4 5 6 6 5 5 4 4 5 5 5 5 4 5 5 5 5 5 5 5 4 4 3 4 4 4 3 4 4
3 3 3 2 2 1 0 1 1 2 2 4 5 5 4 5 5 5 6 6 4 4 6 6 6 5 4 5 5 5 5 5 6 6 5 5 5 4 4 4 4 3 3
4 3 3 2 2 2 1 1 1 1 1 3 4 4 5 4 4 5 5 5 4 4 6 6 6 6 5 5 4 4 5 5 5 6 5 5 5 5 5 5 4 3 4
5 4 4 2 2 2 1 0 1 2 1 2 3 3 4 4 5 5 5 4 5 5 6 7 7 6 6 5 4 4 5 5 5 5 6 5 5 5 5 5 5 5 5
5 5 5 3 2 1 1 2 2 2 1 2 3 3 3 3 4 4 5 5 6 6 7 7 6 6 5 5 4 4 5 5 5 5 6 6 5 5 5 5 5 6 6
5 4 4 3 2 2 2 3 2 2 1 1 3 4 3 3 4 4 4 5 5 6 7 7 7 6 6 6 5 5 6 6 6 5 5 6 6 5 5 5 5 6 5
4 5 5 4 3 2 1 1 0 1 1 1 3 4 4 3 3 5 5 6 6 6 6 6 6 7 7 6 6 6 7 6 6 6 6 6 5 5 5 5 6 6 6
5 5 5 4 3 2 2 3 2 2 1 1 2 4 5 3 3 4 5 6 6 7 7 6 6 6 6 6 6 7 7 7 6 6 6 5 5 4 3 4 5 5 6
6 5 5 4 4 4 3 2 1 2 2 2 2 3 4 3 3 4 5 5 6 6 7 6 6 6 6 6 6 8 8 8 7 6 6 5 4 4 4 4 4 5 5
4 5 6 5 4 5 5 4 3 2 2 2 2 1 3 3 3 4 5 5 5 7 6 6 6 6 6 5 6 7 9 8 8 7 6 5 5 6 4 4 4 4 4
4 4 5 5 4 4 4 4 4 3 2 2 2 1 1 2 2 4 4 4 5 6 5 6 6 6 5 5 7 7 7 8 8 7 7 6 5 6 7 7 7 6 6
3 3 4 4 4 3 3 3 3 2 2 2 1 1 1 1 2 4 4 5 5 5 5 6 6 5 4 5 7 9 7 8 8 7 6 6 5 5 4 6 7 7 10
2 2 3 4 5 5 4 4 4 4 3 2 2 3 3 3 3 4 4 5 5 5 5 5 6 5 5 4 5 9 8 8 7 6 5 5 5 4 4 5 5 5 6
2 2 1 2 3 3 3 3 4 4 4 3 3 3 3 3 3 4 5 5 4 5 5 5 5 6 4 1 3 6 6 7 7 6 5 5 4 5 6 5 6 6 5
2 2 1 1 1 1 2 1 3 3 3 4 4 3 2 3 4 5 5 5 5 5 6 6 5 6 4 2 2 4 4 6 6 6 5 4 5 6 6 5 5 6 4
3 1 1 1 1 1 0 3 4 3 1 1 1 2 3 4 5 6 5 5 6 6 6 7 6 6 4 3 3 2 2 4 6 6 5 4 7 8 8 7 5 7 5
4 1 1 1 1 1 2 4 4 2 2 2 3 5 6 6 6 6 6 6 6 7 7 7 6 4 4 4 5 5 5 5 5 5 4 4 9 10 9 6 6 7 5
3 2 0 1 1 1 1 3 4 3 3 4 6 7 7 7 7 7 7 6 6 6 6 5 5 4 3 4 7 7 7 7 5 5 7 9 11 10 7 6 6 5 2
3 3 2 2 2 3 2 2 4 4 5 6 7 7 7 7 7 6 6 6 5 5 5 5 5 4 3 2 2 2 3 5 4 5 7 9 9 6 5 5 4 2 1
4 4 4 4 4 4 5 5 5 6 6 7 7 6 6 6 6 6 6 7 6 7 7 6 5 4 4 2 2 2 2 2 3 5 5 5 4 3 2 3 2 1 1
5 5 5 5 6 7 8 8 8 7 8 7 7 6 5 5 5 5 6 10 11 13 14 13 10 7 7 6 7 6 5 5 5 4 5 5 4 3 3 2 2 1 1
Wind_Direction
100 103 86 63 23 30 20 11 15 15 19 15 343 342 338 330 332 344 356 349 338 335 320 311 315 310 282 263 251 241 235 228 213 214 240 252 244 245 246 249 241 222 198
65 98 91 65 41 38 22 4 22 18 19 6 344 331 330 321 330 339 346 349 340 337 332 329 314 305 299 285 266 248 235 240 207 196 190 230 245 242 235 236 237 229 204
40 45 49 36 36 49 31 10 22 19 19 0 359 344 332 331 351 348 344 336 328 330 330 324 319 308 302 289 279 259 236 238 232 206 192 192 215 226 237 231 233 229 217
106 84 68 42 26 49 40 18 19 16 16 2 5 345 338 344 337 335 329 335 332 336 324 318 318 310 301 293 287 275 250 228 240 235 229 235 227 190 228 249 233 228 224
119 107 95 72 37 50 45 20 16 16 13 345 328 317 342 334 325 326 332 338 328 327 335 333 320 313 305 302 298 299 279 243 229 229 224 235 244 234 213 236 243 238 231
138 143 127 122 99 77 64 11 10 5 345 320 316 325 340 331 325 332 338 332 322 330 351 343 333 317 317 310 299 287 279 264 247 236 224 214 212 213 211 222 228 233 243
156 154 144 132 100 70 79 319 337 346 354 330 325 340 350 340 335 348 337 327 330 340 347 346 329 320 312 307 304 294 281 268 257 242 233 226 226 228 221 219 222 228 244
163 150 146 156 183 216 198 229 319 313 328 318 339 345 353 357 344 343 328 330 337 330 333 334 319 314 313 316 315 304 293 283 270 262 247 233 232 226 222 215 205 216 233
165 176 171 188 206 207 154 171 285 302 324 328 331 334 1 345 338 336 333 341 332 324 334 320 317 319 323 321 316 300 299 301 282 267 260 245 236 234 228 224 208 199 214
183 176 161 185 213 188 168 215 225 244 339 338 322 350 346 337 327 317 330 327 317 319 316 318 320 321 329 331 326 311 300 296 285 270 258 250 236 232 230 226 223 215 213
175 168 163 181 182 223 234 219 212 187 138 347 336 338 334 318 310 320 326 316 318 325 326 330 332 337 338 334 332 322 317 309 300 293 281 268 249 233 232 228 223 224 218
162 169 171 179 193 220 275 305 330 61 104 70 338 322 304 305 342 346 340 338 329 325 325 331 337 340 339 336 333 329 326 314 306 301 298 286 273 245 231 224 223 222 218
174 185 170 179 199 206 227 243 208 152 119 143 288 302 312 348 351 335 341 334 327 331 330 331 338 337 335 337 338 336 325 319 312 309 305 300 294 272 247 231 225 225 228
178 184 172 190 195 204 228 234 150 136 184 210 234 281 308 341 353 348 337 326 333 334 328 336 338 334 333 338 352 344 330 323 317 310 303 298 298 288 276 259 245 233 227
194 190 182 199 197 201 207 202 168 176 224 236 231 279 343 358 356 336 324 332 336 328 327 332 330 331 330 353 359 339 327 323 318 314 308 299 294 291 277 266 258 247 233
210 202 193 190 199 217 200 178 167 174 198 231 222 163 259 302 315 306 311 320 312 306 316 318 318 324 334 343 340 331 318 312 309 310 307 298 284 283 280 268 258 246 240
192 194 207 188 192 220 178 147 142 149 210 225 199 171 226 270 288 305 312 308 305 309 318 313 314 317 329 322 329 332 319 299 299 301 302 304 306 310 300 292 276 262 250
153 179 204 192 194 202 176 157 165 197 214 202 209 209 210 234 255 270 279 283 291 306 305 303 310 315 316 319 329 332 312 301 301 302 300 302 310 328 333 313 294 275 255
101 150 195 214 205 188 161 179 208 205 196 190 217 229 216 220 240 264 273 272 277 283 287 290 296 300 300 306 322 333 311 308 313 326 328 325 326 328 332 308 292 287 274
74 76 131 269 266 166 146 215 267 260 230 203 212 226 226 229 242 254 267 274 273 271 277 278 275 279 279 233 273 328 311 316 321 323 328 347 342 329 323 307 295 289 283
93 75 272 273 330 346 292 252 265 275 290 126 198 243 249 246 244 244 251 265 273 276 276 277 271 262 251 220 208 257 293 310 316 319 327 340 345 335 325 311 288 281 285
119 133 273 261 245 273 277 278 279 289 304 266 241 243 247 252 257 242 243 250 262 273 277 275 276 264 230 204 207 227 256 277 291 303 315 324 329 326 319 309 295 294 287
104 118 229 315 316 294 277 300 311 310 286 264 252 245 245 244 240 239 242 244 247 254 265 270 273 274 246 208 211 225 253 267 268 286 299 304 307 312 309 300 306 310 290
77 73 64 45 7 0 39 16 333 323 303 282 266 254 250 249 244 237 231 233 240 250 260 267 272 274 267 243 192 221 261 275 282 295 302 298 294 290 287 295 294 288 294
70 70 56 38 22 19 27 19 356 334 315 302 293 283 273 267 262 252 235 233 231 228 235 246 254 268 273 233 187 215 276 316 319 320 302 291 287 293 288 291 296 302 331
69 69 59 44 32 29 29 20 4 351 337 324 320 318 312 301 289 278 273 251 242 244 237 233 235 246 245 223 219 229 248 269 290 305 288 289 284 278 278 279 275 262 249
Height
1529 1529 1530 1531 1531 1530 1528 1527 1525 1523 1521 1518 1516 1515 1513 1512 1511 1509 1508 1506 1505 1504 1503 1503 1502 1503 1503 1504 1505 1506 1507 1508 1510 1512 1513 1515 1517 1518 1520 1523 1525 1527 1529
1528 1529 1529 1530 1529 1528 1527 1526 1524 1522 1520 1518 1516 1514 1513 1511 1510 1508 1506 1505 1503 1502 1501 1500 1500 1500 1500 1501 1502 1502 1503 1505 1507 1508 1510 1512 1514 1514 1516 1518 1521 1523 1525
1526 1528 1528 1529 1528 1527 1526 1525 1523 1522 1520 1517 1516 1513 1512 1511 1509 1507 1505 1504 1502 1500 1499 1498 1497 1497 1497 1498 1498 1499 1500 1501 1503 1505 1507 1508 1508 1510 1512 1513 1516 1518 1521
1525 1526 1527 1527 1527 1526 1525 1524 1523 1521 1519 1517 1515 1513 1511 1510 1508 1507 1505 1503 1501 1499 1498 1496 1495 1495 1495 1495 1495 1496 1497 1498 1499 1501 1503 1505 1506 1508 1508 1509 1511 1514 1516
1523 1525 1526 1526 1526 1525 1524 1523 1522 1520 1518 1516 1515 1513 1511 1509 1508 1506 1504 1502 1500 1498 1497 1495 1494 1493 1493 1492 1492 1493 1494 1495 1496 1497 1498 1500 1502 1504 1505 1505 1507 1509 1511
1522 1523 1524 1524 1525 1524 1523 1522 1521 1519 1517 1516 1514 1513 1511 1509 1507 1505 1503 1501 1499 1498 1496 1494 1492 1491 1490 1490 1489 1489 1490 1491 1492 1493 1494 1496 1497 1499 1501 1501 1502 1504 1506
1520 1522 1523 1523 1523 1523 1522 1521 1520 1518 1517 1515 1514 1512 1510 1508 1506 1504 1502 1500 1498 1497 1494 1492 1491 1489 1488 1487 1487 1486 1487 1487 1488 1489 1490 1491 1493 1495 1496 1498 1499 1500 1502
1519 1520 1521 1521 1521 1521 1520 1520 1519 1517 1516 1515 1513 1511 1510 1508 1505 1503 1501 1500 1498 1496 1493 1491 1489 1488 1487 1486 1485 1484 1484 1484 1484 1485 1486 1487 1488 1490 1491 1493 1495 1496 1497
1517 1518 1519 1520 1520 1520 1519 1518 1517 1516 1515 1514 1512 1511 1508 1506 1504 1502 1501 1499 1496 1494 1492 1490 1488 1487 1485 1484 1483 1482 1481 1481 1481 1481 1482 1482 1483 1485 1486 1488 1490 1492 1492
1515 1516 1517 1518 1518 1518 1518 1517 1516 1515 1514 1513 1512 1510 1508 1506 1504 1502 1500 1497 1495 1493 1491 1489 1487 1486 1484 1483 1481 1480 1479 1478 1478 1478 1478 1478 1479 1480 1482 1483 1485 1487 1489
1512 1514 1515 1516 1517 1517 1516 1516 1515 1514 1513 1512 1510 1509 1507 1505 1503 1501 1499 1497 1495 1492 1490 1488 1486 1485 1483 1481 1479 1478 1477 1476 1475 1475 1475 1474 1475 1475 1476 1478 1480 1481 1483
1510 1512 1513 1514 1515 1515 1515 1515 1514 1513 1512 1510 1509 1508 1506 1504 1502 1500 1498 1495 1493 1491 1489 1487 1485 1483 1481 1479 1477 1476 1474 1473 1472 1472 1471 1471 1471 1472 1472 1473 1474 1476 1478
1508 1510 1511 1512 1513 1513 1513 1513 1512 1511 1510 1509 1508 1506 1505 1503 1501 1499 1496 1494 1492 1490 1488 1486 1484 1481 1479 1477 1475 1474 1472 1471 1470 1469 1468 1468 1468 1468 1468 1469 1470 1471 1473
1506 1508 1509 1510 1511 1511 1511 1511 1511 1510 1509 1508 1506 1505 1504 1502 1500 1497 1495 1493 1491 1488 1486 1484 1482 1480 1477 1475 1473 1471 1469 1468 1467 1466 1465 1465 1464 1464 1465 1465 1466 1467 1468
1504 1505 1507 1508 1509 1509 1509 1509 1509 1508 1507 1507 1505 1504 1502 1500 1498 1496 1494 1492 1489 1487 1485 1483 1480 1478 1476 1473 1471 1469 1467 1465 1464 1463 1463 1462 1461 1461 1461 1461 1462 1462 1463
1502 1503 1504 1505 1506 1507 1507 1507 1507 1507 1506 1505 1504 1502 1501 1499 1497 1495 1493 1490 1488 1486 1484 1481 1479 1476 1474 1472 1469 1467 1465 1463 1462 1461 1460 1459 1458 1458 1458 1458 1458 1459 1459
1500 1501 1502 1503 1504 1505 1505 1506 1506 1505 1505 1504 1503 1501 1499 1498 1495 1493 1491 1489 1487 1485 1482 1480 1478 1475 1472 1470 1468 1465 1463 1461 1460 1458 1457 1456 1456 1455 1454 1454 1454 1454 1455
1498 1499 1500 1501 1502 1503 1504 1504 1504 1503 1503 1502 1501 1500 1498 1496 1494 1492 1490 1488 1486 1483 1481 1479 1476 1474 1471 1468 1466 1464 1461 1459 1458 1456 1455 1454 1453 1452 1451 1450 1450 1450 1450
1496 1497 1499 1500 1501 1501 1502 1502 1502 1502 1501 1500 1499 1498 1496 1495 1493 1491 1488 1486 1484 1482 1480 1477 1475 1472 1470 1467 1465 1462 1460 1458 1456 1455 1453 1451 1450 1449 1448 1447 1446 1446 1446
1495 1496 1497 1498 1499 1500 1500 1501 1501 1501 1500 1499 1497 1496 1495 1493 1491 1489 1487 1485 1483 1481 1478 1476 1474 1471 1469 1466 1464 1461 1458 1456 1454 1452 1451 1449 1448 1447 1445 1444 1443 1442 1442
1494 1495 1496 1497 1498 1498 1498 1499 1499 1499 1498 1496 1495 1494 1492 1490 1489 1487 1485 1483 1481 1479 1477 1474 1472 1470 1468 1465 1462 1460 1457 1455 1452 1451 1449 1447 1446 1444 1443 1442 1440 1439 1439
1493 1494 1494 1495 1496 1496 1496 1496 1496 1496 1495 1493 1492 1491 1489 1487 1486 1484 1482 1480 1478 1476 1474 1472 1470 1469 1466 1464 1461 1459 1456 1454 1451 1449 1447 1446 1444 1442 1441 1439 1438 1437 1436
1492 1492 1493 1494 1494 1494 1494 1494 1493 1492 1491 1490 1488 1487 1486 1484 1482 1481 1479 1477 1475 1473 1472 1470 1468 1466 1465 1462 1460 1457 1455 1453 1450 1448 1446 1444 1442 1441 1439 1437 1436 1435 1434
1490 1491 1491 1491 1492 1492 1491 1490 1490 1489 1487 1486 1485 1483 1482 1480 1479 1477 1476 1474 1472 1471 1469 1467 1465 1464 1462 1460 1457 1455 1453 1451 1449 1447 1445 1443 1441 1439 1438 1436 1435 1434 1433
1489 1489 1489 1489 1490 1489 1489 1487 1486 1485 1484 1483 1481 1480 1478 1477 1475 1473 1472 1470 1469 1467 1466 1464 1462 1460 1458 1457 1455 1453 1451 1449 1447 1445 1443 1441 1440 1438 1437 1436 1435 1434 1433
1487 1487 1487 1487 1487 1487 1485 1484 1483 1482 1480 1479 1477 1476 1474 1472 1470 1469 1467 1465 1464 1463 1461 1460 1459 1456 1455 1453 1452 1450 1449 1447 1445 1443 1441 1440 1439 1437 1436 1435 1434 1434 1433